Terug naar catalogus

HELLAS-SAT 3

ActiefCommunicatieGEO
NORAD 42814·PAYLOAD·🇪🇺 EU

Gelanceerd Jun 28, 2017 vanaf Guiana Space Centre

Loading…

TLE

VersSource: Space-Track

Epoch: Sep 14, 2026, 13:59 UTC

1 42814U 17040A   26257.58290104  .00000144  00000-0  00000-0 0  9991
2 42814   0.0758  53.4059 0001949  60.0978 128.9147  1.00274669 33700

Volg HELLAS-SAT 3 in realtime met AllMySat

Download on the App Store